CAPE
0 14 0 0 0 0 0 0 0 0 0 0 0 0 0 0 0 0 0 0 0 0 0 0 0 207 607 921 1239 1526 1549 1427 1022 1031 863 716 777 687 678 715 737 855 911 831
0 0 0 8 5 0 0 0 0 0 0 0 0 0 0 0 0 0 0 0 0 0 0 0 0 0 126 471 906 1130 1315 1084 1019 1001 793 723 660 619 678 635 628 621 681 532
0 0 0 6 7 0 0 0 0 0 0 0 0 0 0 0 0 0 0 0 0 0 0 0 0 0 0 403 831 1019 1092 981 898 658 500 490 433 520 589 532 437 374 477 496
0 0 0 0 0 0 0 0 0 0 0 0 0 0 0 0 0 0 0 0 0 0 0 0 0 0 0 81 1045 1261 1202 916 707 571 641 628 718 716 612 533 542 498 506 626
0 0 0 2 0 1 0 0 0 0 0 0 0 0 0 0 0 0 0 0 0 0 0 0 0 0 0 857 1321 1423 1147 720 549 649 688 625 572 549 547 641 660 606 432 420
0 69 0 0 0 1 5 0 0 0 0 0 0 0 0 0 0 0 0 0 0 0 0 0 0 0 370 1248 1067 719 646 565 594 834 785 770 786 750 653 602 519 569 479 435
1 0 9 0 38 14 0 0 0 0 0 0 0 0 0 0 0 0 0 0 0 0 0 0 0 6 778 672 644 596 515 481 652 678 783 853 856 803 928 1002 848 521 366 268
1 0 1 1 0 2 0 0 0 0 0 0 0 0 0 0 0 0 0 0 0 0 0 0 134 516 597 589 570 538 419 274 256 254 188 143 330 528 521 474 505 334 204 47
1 2 0 57 0 0 0 0 0 0 0 0 0 0 0 0 0 0 0 0 0 7 35 215 240 70 47 136 255 160 35 5 4 3 1 0 0 2 3 0 0 0 0 0
12 5 6 6 22 8 0 0 0 0 0 0 0 0 0 0 0 0 0 0 1 0 0 2 1 0 1 5 4 1 0 0 0 0 0 0 0 0 0 0 0 0 0 0
8 0 0 7 3 0 1 0 0 0 0 0 0 0 0 0 0 0 0 3 1 1 1 1 3 4 2 1 0 0 0 0 0 0 0 0 0 0 0 0 0 0 0 0
3 0 0 8 1 60 1 0 0 0 0 0 0 0 1 0 1 5 2 1 3 5 5 3 2 1 0 0 0 0 0 0 0 0 0 0 0 0 0 0 0 0 0 0
1 0 0 13 4 8 8 0 0 0 0 0 0 0 5 8 5 0 0 3 3 2 1 0 0 0 0 0 0 0 0 0 0 0 0 0 0 0 0 0 0 0 0 0
2 1 4 0 0 0 5 0 0 0 0 0 5 1 13 11 0 2 2 2 2 0 0 0 0 0 0 0 0 0 0 0 0 0 0 0 0 0 0 0 0 0 0 0
2 0 2 3 0 0 0 0 0 0 0 0 54 70 41 14 0 2 3 3 2 2 2 2 1 0 0 0 0 0 0 0 0 0 0 0 0 0 0 0 0 0 0 0
5 0 0 4 1 0 0 0 0 0 0 0 104 79 33 5 3 4 3 5 6 5 4 1 0 0 0 0 0 0 0 0 0 0 0 0 0 0 0 0 0 0 0 0
1 0 1 0 10 1 0 0 0 0 2 0 21 57 12 3 3 4 3 5 3 0 0 0 0 0 0 0 0 0 0 0 0 0 0 0 0 0 0 0 0 0 0 0
1 0 1 1 9 0 1 35 43 13 27 50 89 79 18 2 2 2 1 4 0 0 0 0 0 0 0 0 0 0 0 0 0 0 0 0 0 0 0 0 0 0 0 0
3 0 0 0 14 0 10 75 35 36 53 150 95 74 0 2 0 2 1 0 0 0 0 0 0 0 0 0 0 0 0 0 0 0 0 0 0 0 0 0 0 0 0 0
3 1 0 0 0 0 0 63 63 48 29 157 29 0 0 1 0 4 2 0 0 0 0 0 0 0 0 0 0 0 0 0 0 1 1 0 0 0 0 0 0 1 0 0
0 0 0 0 0 1 2 52 33 9 7 51 1 2 3 1 0 3 0 0 0 0 0 0 0 0 0 0 0 0 0 1 1 0 0 0 0 0 0 1 1 2 2 2
1 0 0 0 3 2 0 53 32 11 7 0 1 0 0 0 1 0 0 0 0 0 0 0 0 0 0 0 0 0 0 3 1 1 0 0 0 0 0 1 1 2 2 3
1 0 0 0 1 4 0 0 0 0 0 1 0 0 0 0 0 0 0 0 0 0 0 0 0 0 0 0 0 0 3 2 2 0 0 0 1 0 1 1 2 3 3 3
2 0 0 1 3 4 3 1 1 0 1 0 0 0 0 0 0 0 0 0 0 0 0 0 0 0 0 0 0 0 1 0 2 3 3 0 0 1 0 1 2 3 4 4
2 0 2 4 3 2 2 2 2 1 0 0 0 0 0 0 0 0 0 0 0 0 0 0 0 0 0 0 0 0 0 1 3 3 3 4 2 0 2 2 3 2 3 2
3 0 2 1 0 2 3 2 1 0 1 0 0 0 0 0 0 0 0 0 0 0 0 0 0 0 0 0 0 0 0 0 2 4 4 3 1 2 3 4 2 0 1 0
CIN
-0 -0 -0 -0 -0 -0 -0 -0 -0 -0 -0 -0 -0 -0 -0 -0 -0 -0 -0 -0 -0 -0 -0 -0 -0 -225 -240 -249 -226 -206 -189 -205 -253 -203 -195 -174 -121 -109 -82 -60 -48 -50 -53 -53
-0 -0 -0 -2 -1 -0 -0 -0 -0 -0 -0 -0 -0 -0 -0 -0 -0 -0 -0 -0 -0 -0 -0 -0 -0 -0 -245 -231 -248 -234 -226 -256 -225 -182 -176 -148 -125 -108 -83 -99 -81 -72 -54 -62
-0 -0 -0 -1 -0 -0 -0 -0 -0 -0 -0 -0 -0 -0 -0 -0 -0 -0 -0 -0 -0 -0 -0 -0 -0 -0 -30 -227 -219 -218 -252 -257 -238 -231 -229 -203 -180 -142 -110 -113 -98 -95 -67 -52
-0 -0 -0 -0 -0 -0 -0 -0 -0 -0 -0 -0 -0 -0 -0 -0 -0 -0 -0 -0 -0 -0 -0 -0 -0 -0 -0 -127 -218 -238 -232 -271 -283 -259 -186 -157 -123 -81 -79 -82 -72 -70 -45 -23
-0 -0 -0 -2 -0 -1 -0 -0 -0 -0 -0 -0 -0 -0 -0 -0 -0 -0 -0 -0 -0 -0 -0 -0 -0 -0 -3 -201 -210 -194 -223 -288 -300 -236 -176 -160 -133 -107 -103 -86 -68 -64 -88 -76
-0 -0 -0 -0 -0 -2 -4 -0 -0 -0 -0 -0 -0 -0 -0 -0 -0 -0 -0 -0 -0 -0 -0 -0 -0 -0 -247 -234 -278 -361 -345 -310 -271 -201 -172 -130 -105 -105 -102 -113 -118 -93 -97 -107
-0 -0 -2 -0 -1 -3 -0 -0 -0 -0 -0 -0 -0 -0 -0 -0 -0 -0 -0 -0 -0 -0 -0 -0 -0 -217 -299 -340 -332 -324 -302 -267 -194 -158 -132 -118 -93 -90 -64 -57 -68 -101 -133 -147
-0 -0 -0 -3 -0 -0 -0 -0 -0 -0 -0 -0 -0 -0 -0 -0 -0 -0 -0 -0 -0 -0 -0 -0 -341 -374 -350 -339 -332 -291 -274 -283 -253 -247 -260 -251 -178 -131 -128 -136 -122 -147 -168 -282
-0 -2 -0 -2 -3 -0 -0 -0 -0 -0 -0 -0 -0 -0 -0 -0 -0 -0 -0 -0 -0 -343 -411 -439 -443 -500 -528 -476 -402 -411 -448 -228 -0 -0 -0 -0 -0 -0 -0 -0 -0 -0 -0 -0
-0 -1 -5 -2 -6 -10 -0 -0 -0 -0 -0 -0 -0 -0 -0 -0 -0 -0 -0 -0 -0 -0 -0 -448 -203 -0 -0 -165 -0 -0 -0 -0 -0 -0 -0 -0 -0 -0 -0 -0 -0 -0 -0 -0
-0 -0 -5 -2 -2 -0 -2 -0 -0 -0 -0 -0 -0 -0 -0 -0 -0 -0 -0 -0 -0 -0 -0 -0 -0 -0 -0 -0 -0 -0 -0 -0 -0 -0 -0 -0 -0 -0 -0 -0 -0 -0 -0 -0
-0 -0 -0 -0 -9 -4 -2 -0 -0 -0 -0 -0 -0 -0 -1 -0 -0 -0 -0 -0 -0 -0 -0 -0 -0 -0 -0 -0 -0 -0 -0 -0 -0 -0 -0 -0 -0 -0 -0 -0 -0 -0 -0 -0
-0 -0 -3 -3 -1 -2 -3 -0 -0 -0 -0 -0 -0 -0 -2 -0 -0 -0 -0 -0 -0 -0 -0 -0 -0 -0 -0 -0 -0 -0 -0 -0 -0 -0 -0 -0 -0 -0 -0 -0 -0 -0 -0 -0
-2 -0 -1 -0 -0 -0 -1 -0 -0 -0 -0 -0 -16 -0 -84 -109 -0 -0 -0 -0 -0 -0 -0 -0 -0 -0 -0 -0 -0 -0 -0 -0 -0 -0 -0 -0 -0 -0 -0 -0 -0 -0 -0 -0
-0 -0 -11 -28 -0 -0 -0 -0 -0 -0 -0 -0 -48 -58 -113 -198 -0 -0 -0 -0 -0 -0 -0 -0 -0 -0 -0 -0 -0 -0 -0 -0 -0 -0 -0 -0 -0 -0 -0 -0 -0 -0 -0 -0
-0 -0 -0 -20 -0 -0 -2 -0 -0 -0 -0 -0 -42 -79 -117 -140 -0 -0 -0 -0 -0 -0 -0 -0 -0 -0 -0 -0 -0 -0 -0 -0 -0 -0 -0 -0 -0 -0 -0 -0 -0 -0 -0 -0
-0 -0 -2 -0 -0 -1 -0 -5 -0 -0 -27 -0 -15 -103 -120 -0 -0 -0 -0 -0 -0 -0 -0 -0 -0 -0 -0 -0 -0 -0 -0 -0 -0 -0 -0 -0 -0 -0 -0 -0 -0 -0 -0 -0
-0 -0 -0 -2 -0 -0 -0 -32 -15 -26 -72 -96 -92 -131 -75 -0 -0 -0 -0 -0 -0 -0 -0 -0 -0 -0 -0 -0 -0 -0 -0 -0 -0 -0 -0 -0 -0 -0 -0 -0 -0 -0 -0 -0
-0 -0 -0 -2 -0 -0 -18 -13 -10 -8 -90 -130 -156 -133 -0 -0 -0 -0 -0 -0 -0 -0 -0 -0 -0 -0 -0 -0 -0 -0 -0 -0 -0 -0 -0 -0 -0 -0 -0 -0 -0 -0 -0 -0
-0 -0 -0 -1 -0 -0 -0 -53 -79 -47 -41 -86 -254 -0 -0 -0 -0 -0 -0 -0 -0 -0 -0 -0 -0 -0 -0 -0 -0 -0 -0 -0 -0 -0 -0 -0 -0 -0 -0 -0 -0 -0 -0 -0
-0 -0 -0 -0 -0 -0 -38 -69 -42 -12 -8 -126 -0 -0 -0 -0 -0 -0 -0 -0 -0 -0 -0 -0 -0 -0 -0 -0 -0 -0 -0 -0 -0 -0 -0 -0 -0 -0 -0 -0 -0 -0 -0 -0
-0 -0 -0 -0 -37 -5 -0 -67 -6 -17 -85 -0 -0 -0 -0 -0 -0 -0 -0 -0 -0 -0 -0 -0 -0 -0 -0 -0 -0 -0 -0 -0 -0 -0 -0 -0 -0 -0 -0 -0 -0 -0 -0 -0
-0 -0 -0 -0 -0 -0 -0 -1 -0 -0 -0 -0 -0 -0 -0 -0 -0 -0 -0 -0 -0 -0 -0 -0 -0 -0 -0 -0 -0 -0 -0 -0 -0 -0 -0 -0 -0 -0 -0 -0 -0 -0 -0 -0
-0 -0 -0 -0 -0 -0 -0 -0 -0 -0 -0 -0 -0 -0 -0 -0 -0 -0 -0 -0 -0 -0 -0 -0 -0 -0 -0 -0 -0 -0 -0 -0 -0 -0 -0 -0 -0 -0 -0 -0 -0 -0 -0 -0
-0 -0 -0 -0 -0 -0 -0 -0 -0 -0 -0 -0 -0 -0 -0 -0 -0 -0 -0 -0 -0 -0 -0 -0 -0 -0 -0 -0 -0 -0 -0 -0 -0 -0 -0 -0 -0 -0 -0 -0 -0 -0 -0 -0
-0 -0 -0 -0 -0 -0 -0 -0 -0 -0 -0 -0 -0 -0 -0 -0 -0 -0 -0 -0 -0 -0 -0 -0 -0 -0 -0 -0 -0 -0 -0 -0 -0 -0 -0 -0 -0 -0 -0 -0 -0 -0 -0 -0
Wind_Speed
32 40 50 42 41 39 36 38 41 34 29 30 41 44 42 34 30 29 28 28 29 28 26 24 20 18 16 14 12 12 13 13 12 13 14 16 17 17 17 17 19 20 19 16
31 51 43 37 40 40 40 34 36 34 34 34 35 44 42 40 38 36 32 28 27 26 25 24 21 17 17 16 14 13 12 12 12 13 14 16 16 18 18 20 20 19 18 15
44 40 38 40 41 46 46 44 34 30 27 30 30 39 35 36 33 31 30 28 27 25 25 24 24 21 17 16 14 13 13 12 11 11 11 14 16 19 20 20 20 17 15 14
45 47 37 42 45 41 50 40 36 31 31 33 27 36 32 35 33 30 29 27 27 24 24 20 18 20 20 17 15 14 12 11 10 9 12 13 16 18 16 16 14 13 12 12
38 38 43 44 45 37 44 33 35 33 31 31 32 35 34 29 33 32 29 26 24 23 19 19 19 17 18 17 16 14 13 11 9 9 9 11 13 14 14 14 13 11 11 11
35 27 30 40 36 34 28 28 29 31 33 43 39 35 33 29 32 27 24 26 27 24 20 20 19 17 16 14 14 12 12 11 10 10 9 10 11 12 14 13 12 10 10 12
26 36 30 29 34 32 32 30 32 37 37 40 33 35 33 24 23 24 24 22 18 15 13 11 12 11 11 12 11 10 9 10 10 10 9 8 10 11 14 15 14 12 12 14
24 26 33 27 33 31 35 34 36 41 41 38 22 35 30 27 21 19 17 13 8 7 6 6 6 7 7 7 6 6 6 7 8 9 9 10 13 14 15 15 14 15 15 14
19 23 16 24 26 29 35 39 26 26 27 30 26 24 21 19 18 15 11 7 5 4 4 3 3 5 4 4 3 3 2 4 6 6 6 8 12 14 13 14 14 13 14 14
24 20 21 23 30 28 31 30 31 27 32 35 32 26 24 21 17 12 9 7 4 3 3 3 2 1 2 2 3 3 3 4 5 6 8 10 11 13 15 16 17 17 17 17
31 24 28 25 29 25 30 34 37 23 26 30 30 32 20 18 15 11 7 5 3 2 1 1 3 4 5 6 6 6 6 5 6 6 8 12 14 16 17 18 19 20 19 20
29 25 33 42 28 41 22 26 28 30 25 25 25 25 19 14 12 7 5 3 2 3 4 7 7 7 7 7 6 4 4 6 7 8 10 15 19 19 18 19 21 22 22 23
19 25 17 11 30 29 39 25 30 29 21 23 25 22 17 13 10 7 6 5 5 7 7 8 7 5 5 5 7 5 6 8 10 10 15 14 16 18 19 21 24 26 26 27
9 19 21 27 41 36 37 37 38 28 26 21 20 18 17 14 11 9 9 9 8 6 6 5 5 5 6 6 6 7 9 10 12 14 13 13 16 19 21 23 25 27 28 29
10 16 16 12 18 16 40 39 48 36 29 19 16 14 16 15 12 12 11 10 9 7 4 3 4 4 7 7 8 9 12 13 14 15 16 17 20 23 25 28 30 31 32 33
10 16 17 14 15 16 34 37 46 36 24 14 14 14 14 11 12 13 12 11 9 7 4 1 3 6 7 8 10 12 15 16 14 15 17 21 25 27 29 31 32 32 33 34
11 11 14 14 14 15 28 34 19 25 27 21 21 21 14 13 13 12 10 8 6 4 1 1 4 6 9 9 11 13 14 15 17 19 22 26 28 30 31 32 32 33 33 33
13 9 12 12 11 23 18 20 17 15 22 19 9 13 13 12 10 8 6 7 5 4 5 3 8 8 10 11 12 12 14 17 20 23 26 29 31 32 32 32 33 33 32 33
21 18 16 18 14 13 23 17 18 21 21 16 14 14 14 12 11 6 4 3 4 5 7 8 8 8 10 11 11 15 18 21 23 27 29 30 31 32 32 32 32 31 32 32
16 21 17 11 14 20 27 20 21 16 20 16 16 18 18 16 11 10 4 6 7 8 9 10 8 8 9 12 15 18 22 24 27 28 29 30 29 29 30 30 31 31 31 31
19 22 20 14 13 15 21 22 24 27 27 12 12 13 12 11 9 12 9 8 11 9 10 9 9 9 11 15 18 21 23 25 27 28 28 28 29 29 29 29 29 30 30 30
21 21 19 16 13 18 18 27 36 16 9 12 12 10 10 13 17 15 12 11 8 8 9 10 11 13 14 16 20 22 25 26 26 26 27 28 28 27 27 28 28 28 29 28
20 17 20 17 14 13 17 23 17 12 15 11 15 16 16 19 16 14 11 9 7 7 11 12 14 15 17 19 21 24 25 25 25 26 27 28 27 27 26 27 27 27 29 29
13 12 15 18 9 6 5 7 8 11 13 16 16 19 19 22 17 15 11 8 8 9 11 13 15 16 18 20 22 23 25 25 25 26 26 26 27 27 27 26 26 27 28 29
12 14 14 11 9 4 4 8 13 16 17 19 14 16 20 20 15 14 12 10 9 11 13 14 16 18 19 20 22 24 25 26 25 26 26 25 26 26 27 26 26 27 26 27
13 17 20 19 15 10 13 12 13 17 16 18 20 17 12 15 13 12 10 10 11 14 15 16 17 19 21 21 23 25 26 26 26 26 26 25 25 25 25 25 25 25 25 24
Wind_Direction
249 250 246 245 246 250 259 257 258 261 264 259 257 258 257 262 263 263 261 259 258 257 259 263 262 262 259 257 252 248 254 261 266 273 279 286 288 293 297 299 299 298 297 294
254 249 249 253 249 248 252 257 259 262 260 260 263 259 258 257 258 260 260 259 258 256 256 258 260 259 256 254 253 253 252 263 269 276 283 291 292 296 298 300 300 300 299 297
252 260 245 247 248 246 248 248 255 262 259 259 265 263 260 257 258 259 258 259 258 256 254 257 258 253 253 251 247 248 256 267 273 279 284 295 299 301 299 302 301 302 302 299
256 255 256 243 245 243 246 245 249 255 257 255 257 261 259 255 254 254 254 256 259 257 258 255 249 254 250 246 250 255 258 266 277 274 282 288 297 300 305 308 309 312 310 309
258 253 243 243 244 242 247 242 240 248 255 258 255 260 260 259 254 254 256 258 259 257 252 254 252 251 248 254 251 253 261 271 276 279 284 293 302 307 313 315 314 310 316 315
263 264 244 244 243 241 247 236 237 243 250 251 249 253 260 256 255 258 258 263 263 259 253 255 258 257 254 254 251 253 259 270 278 283 283 298 303 309 315 321 325 321 321 317
274 255 255 241 234 233 232 217 230 235 240 247 247 248 252 261 259 262 263 268 266 251 237 240 245 246 245 251 253 253 259 273 290 298 297 303 311 314 315 316 317 317 314 311
274 260 237 236 228 226 219 216 227 231 232 237 250 246 258 256 263 267 271 267 258 220 217 217 228 236 246 246 243 243 261 285 308 311 305 310 314 315 317 321 315 310 312 314
278 261 242 236 228 223 218 221 231 234 235 237 242 252 257 247 253 260 257 246 244 222 208 211 240 248 239 237 219 212 251 314 328 333 335 331 333 329 325 316 320 325 324 319
259 261 257 208 228 226 214 213 226 233 228 234 235 242 250 234 239 246 242 237 244 256 243 241 249 148 113 114 115 92 73 44 19 20 2 347 340 327 314 306 307 308 314 317
217 209 213 169 225 207 214 215 224 236 237 235 234 235 252 233 233 231 228 238 243 259 252 187 144 122 104 93 84 78 65 50 26 8 355 340 314 322 317 315 311 314 318 320
199 211 203 168 217 208 218 210 214 222 230 238 240 238 245 231 224 212 205 194 166 137 111 104 109 104 95 87 69 48 5 6 12 5 349 324 313 306 317 315 314 315 317 320
218 219 215 189 218 220 213 179 222 228 236 235 235 234 231 219 212 201 180 171 144 126 114 105 98 88 75 49 46 31 358 354 356 356 345 326 313 312 321 322 314 310 314 316
287 221 221 212 183 207 191 163 213 218 223 230 241 215 212 202 191 184 163 146 143 140 130 113 92 70 49 28 17 13 358 353 350 354 1 330 324 320 323 320 318 317 316 319
260 220 225 237 231 216 177 160 193 210 213 229 218 197 197 195 180 168 158 148 143 137 128 104 78 44 26 6 357 4 1 343 341 345 341 327 323 323 320 317 315 314 315 317
269 216 219 224 213 167 194 194 177 203 210 223 201 197 201 180 168 161 152 144 140 123 109 45 45 28 356 339 359 358 2 355 342 338 330 320 319 322 322 319 318 319 319 320
241 211 198 203 189 177 200 197 202 210 211 212 209 203 181 169 166 167 153 153 129 111 166 298 358 18 17 355 6 4 354 343 336 333 325 322 322 324 323 322 322 321 322 323
217 227 217 187 144 200 205 212 205 192 212 225 199 158 153 160 161 155 141 123 120 87 72 28 40 31 20 10 360 350 343 339 335 331 327 325 324 324 324 325 325 326 327 327
192 201 204 201 212 213 207 212 204 206 210 216 163 168 154 140 132 178 180 101 109 77 58 47 37 26 14 4 339 351 347 340 334 330 330 330 330 327 329 329 329 331 331 331
212 192 209 208 208 208 201 212 214 210 205 206 153 145 144 146 179 209 153 100 85 66 54 47 30 12 357 342 344 340 346 345 339 338 338 338 339 337 336 335 336 335 335 335
204 178 202 218 223 218 212 210 201 201 200 181 164 158 145 199 208 128 119 98 78 64 51 32 14 359 350 355 356 349 352 348 345 344 345 345 345 344 344 343 343 341 341 340
191 201 209 217 215 206 217 203 197 204 126 142 152 159 130 115 112 110 106 97 78 62 41 24 19 16 3 352 357 355 352 347 349 351 352 351 352 354 355 354 353 354 353 353
171 203 198 210 218 218 213 208 212 199 126 153 134 121 117 112 111 107 103 92 73 45 41 29 27 19 4 357 356 355 351 352 355 355 355 356 359 4 2 2 360 359 359 358
200 216 200 199 214 202 190 166 164 166 133 123 117 111 120 113 107 102 94 79 53 39 28 25 23 12 5 358 359 360 357 354 358 359 0 3 4 5 3 6 2 2 1 359
203 201 206 191 186 130 120 140 118 116 113 108 110 114 110 107 103 94 81 63 46 39 30 22 19 12 8 7 3 359 3 5 7 6 4 5 5 7 6 7 4 3 7 2
216 194 201 197 206 159 165 152 118 113 115 110 114 113 116 99 94 81 67 51 36 36 32 20 12 7 4 8 11 9 8 7 7 6 3 2 5 3 6 359 1 8 3 0